Springfield, OH

3:15 AM EDT on July 27, 2017 (GMT -0400)
Springfield-Beckley Municipal

Weather History for KSGH - April, 2014

Change the Weather History Date:

Friday, April 18, 2014

  Actual Average (KFFO) Record (KFFO)
Temperature  
Mean Temperature 51 °F -  
Max Temperature 66 °F 62 °F 86 °F (2002)
Min Temperature 36 °F 41 °F 28 °F (1997)
Degree Days  
Heating Degree Days 14    
Growing Degree Days 1 (Base 50)    
Moisture  
Dew Point 38 °F    
Average Humidity 59    
Maximum Humidity 93    
Minimum Humidity 34    
Precipitation  
Precipitation 0.00 in - - ()
Sea Level Pressure  
Sea Level Pressure 30.28 in    
Wind  
Wind Speed 2 mph (NNW)    
Max Wind Speed 13 mph    
Max Gust Speed 16 mph    
Visibility 7 miles    
Events      
Averages and records for this station are not official NWS values.
T = Trace of Precipitation, MM = Missing Value Source: NWS Daily Summary

Daily Weather History Graph

Daily Weather History Graph

Search for Another Location

Airport or City:

Trip Planner

Search our weather history database for the weather conditions in past years. The results will help you decide how hot, cold, wet, or windy it might be!

Date:

Astronomy

Apr. 18, 2014 Rise Set
Actual Time 6:53 AM EDT 8:16 PM EDT
Civil Twilight 6:25 AM EDT 8:44 PM EDT
Nautical Twilight 5:51 AM EDT 9:18 PM EDT
Astronomical Twilight 5:15 AM EDT 9:54 PM EDT
Moon No Moon Rise 9:14 AM EDT (4/18)
Length of Visible Light 14h 19m
Length of Day
13h 23m
Waning Gibbous, 87% of the Moon is Illuminated
Apr 18
Waning Gibbous
Apr 22
Last Quarter
Apr 29
New
May 6
First Quarter
May 14
Full

Hourly Weather History & Observations

Time (EDT) Temp. Windchill Dew Point Humidity Pressure Visibility Wind Dir Wind Speed Gust Speed Precip Events Conditions
12:56 AM 45.0 °F 43.5 °F 36.9 °F 73% 30.29 in 8.0 mi ESE 3.5 mph - N/A   Clear
1:56 AM 41.9 °F - 36.0 °F 79% 30.29 in 8.0 mi Calm Calm - N/A   Clear
2:56 AM 38.8 °F - 34.9 °F 86% 30.27 in 8.0 mi Calm Calm - N/A   Clear
3:56 AM 38.8 °F - 34.9 °F 86% 30.26 in 8.0 mi Calm Calm - N/A   Clear
4:56 AM 36.9 °F - 34.9 °F 93% 30.28 in 7.0 mi Calm Calm - N/A   Clear
5:56 AM 39.9 °F - 36.0 °F 86% 30.29 in 7.0 mi Calm Calm - N/A   Clear
6:56 AM 41.0 °F - 36.0 °F 82% 30.29 in 7.0 mi Calm Calm - N/A   Clear
7:56 AM 39.9 °F - 36.9 °F 89% 30.30 in 6.0 mi Calm Calm - N/A   Clear
8:56 AM 48.9 °F - 43.0 °F 80% 30.31 in 6.0 mi Calm Calm - N/A   Haze
9:56 AM 54.9 °F - 38.8 °F 55% 30.31 in 6.0 mi Calm Calm - N/A   Haze
10:56 AM 61.0 °F - 37.9 °F 42% 30.31 in 7.0 mi Calm Calm - N/A   Clear
11:56 AM 63.0 °F - 37.9 °F 40% 30.31 in 7.0 mi Calm Calm - N/A   Clear
12:56 PM 64.9 °F - 38.8 °F 38% 30.30 in 7.0 mi West 8.1 mph - N/A   Clear
1:56 PM 66.9 °F - 38.8 °F 36% 30.29 in 7.0 mi NNW 12.7 mph 16.1 mph N/A   Clear
2:56 PM 66.9 °F - 38.8 °F 36% 30.28 in 7.0 mi Variable 3.5 mph - N/A   Clear
3:56 PM 66.9 °F - 37.9 °F 34% 30.27 in 7.0 mi NNW 8.1 mph - N/A   Mostly Cloudy
4:56 PM 66.9 °F - 38.8 °F 36% 30.26 in 6.0 mi North 5.8 mph - N/A   Haze
5:56 PM 66.9 °F - 38.8 °F 36% 30.24 in 7.0 mi WNW 4.6 mph - N/A   Scattered Clouds
6:56 PM 66.9 °F - 38.8 °F 36% 30.23 in 7.0 mi WNW 6.9 mph - N/A   Scattered Clouds
7:56 PM 61.9 °F - 39.9 °F 44% 30.22 in 7.0 mi NNW 5.8 mph - N/A   Clear
8:56 PM 61.0 °F - 39.9 °F 46% 30.24 in 8.0 mi Calm Calm - N/A   Clear
9:56 PM 55.9 °F - 39.9 °F 55% 30.25 in 8.0 mi Calm Calm - N/A   Clear
10:56 PM 54.9 °F - 39.9 °F 57% 30.25 in 7.0 mi North 5.8 mph - N/A   Clear
11:56 PM 52.9 °F - 41.0 °F 64% 30.26 in 8.0 mi North 6.9 mph - N/A   Clear